Location: Newark
(48.1500°N, 2.9667°W)
Time: 17:15:24
(UTC+00:00)

Altair - Pass Details

Date: 29 January 2020
Orbit: 1502 x 1682 km, 47.2° (Epoch: 22 February)

Event Time Altitude Azimuth Distance (km) Brightness Sun altitude
Rises 08:07:44 0° 233° (SW) 4,852 9.9 2.6°
Reaches altitude 10° 08:10:52 10° 230° (SW) 3,887 9.5 3.0°
Maximum altitude 08:20:40 62° 153° (SSE) 1,846 8.4 4.4°
Drops below altitude 10° 08:30:37 10° 76° (ENE) 3,948 10.3 5.8°
Sets 08:33:49 0° 73° (ENE) 4,932 10.7 6.2°
